• In Czech Republic
  • List of Countries
  • For 7 days
  • Water Temperature
  • Satellite Maps
  • Weather Map
  • Weather Widgets
  • user-avatar
    Login

    Hourly Weather Korkuteli

    Today, 11 December, Monday

    Time Temperature Precipitation Wind Pressure Humidity
    00:00 +7°C° 0 mm 1 mps 677 mmHg 90%
    01:00 +6°C° 0 mm 1 mps 677 mmHg 90%
    02:00 +5°C° 0 mm 2 mps 677 mmHg 90%
    03:00 +5°C° 0 mm 2 mps 678 mmHg 90%
    04:00 +6°C° 0 mm 1 mps 678 mmHg 90%
    05:00 +5°C° 0 mm 1 mps 678 mmHg 90%
    06:00 +6°C° 0 mm 1 mps 678 mmHg 89%
    07:00 +6°C° 0 mm 1 mps 678 mmHg 88%
    08:00 +7°C° 0 mm 1 mps 679 mmHg 83%
    09:00 +9°C° 0 mm 1 mps 679 mmHg 77%
    10:00 +10°C° 0 mm 1 mps 680 mmHg 70%
    11:00 +10°C° 0 mm 2 mps 680 mmHg 63%
    12:00 +12°C° 0 mm 2 mps 680 mmHg 62%
    13:00 +12°C° 0 mm 2 mps 680 mmHg 61%
    14:00 +13°C° 0 mm 2 mps 680 mmHg 59%
    15:00 +10°C° 0 mm 2 mps 680 mmHg 67%
    16:00 +10°C° 0 mm 1 mps 679 mmHg 74%
    17:00 +9°C° 0 mm 1 mps 679 mmHg 82%
    18:00 +8°C° 0 mm 1 mps 679 mmHg 84%
    19:00 +8°C° 0 mm 1 mps 679 mmHg 86%
    20:00 +8°C° 0 mm 1 mps 679 mmHg 88%
    21:00 +8°C° 0 mm 1 mps 679 mmHg 88%
    22:00 +8°C° 0 mm 1 mps 679 mmHg 87%
    23:00 +8°C° 0 mm 1 mps 679 mmHg 87%

    Tomorrow, 12 December, Tuesday

    Time Temperature Precipitation Wind Pressure Humidity
    00:00 +8°C° 0 mm 1 mps 679 mmHg 86%
    01:00 +8°C° 0 mm 1 mps 679 mmHg 84%
    02:00 +8°C° 0 mm 1 mps 679 mmHg 83%
    03:00 +8°C° 0 mm 1 mps 679 mmHg 82%
    04:00 +7°C° 0 mm 1 mps 678 mmHg 81%
    05:00 +7°C° 0 mm 1 mps 678 mmHg 80%
    06:00 +8°C° 0 mm 1 mps 678 mmHg 78%
    07:00 +8°C° 0 mm 1 mps 679 mmHg 76%
    08:00 +9°C° 0 mm 1 mps 679 mmHg 74%
    09:00 +9°C° 0 mm 0 mps 679 mmHg 66%
    10:00 +11°C° 0 mm 0 mps 680 mmHg 59%
    11:00 +13°C° 0 mm 0 mps 680 mmHg 51%
    12:00 +14°C° 0 mm 1 mps 680 mmHg 49%
    13:00 +15°C° 0 mm 1 mps 679 mmHg 47%
    14:00 +15°C° 0 mm 1 mps 679 mmHg 45%
    15:00 +14°C° 0 mm 1 mps 679 mmHg 52%
    16:00 +12°C° 0 mm 1 mps 678 mmHg 58%
    17:00 +9°C° 0 mm 0 mps 678 mmHg 65%
    18:00 +10°C° 0 mm 1 mps 678 mmHg 65%
    19:00 +10°C° 0 mm 1 mps 678 mmHg 66%
    20:00 +9°C° 0 mm 1 mps 678 mmHg 66%
    21:00 +9°C° 0 mm 1 mps 678 mmHg 67%
    22:00 +9°C° 0 mm 1 mps 678 mmHg 68%
    23:00 +8°C° 0 mm 1 mps 677 mmHg 69%

    Day after tomorrow, 13 December, Wednesday

    Time Temperature Precipitation Wind Pressure Humidity
    00:00 +8°C° 0 mm 1 mps 677 mmHg 70%
    01:00 +8°C° 0 mm 1 mps 677 mmHg 70%
    02:00 +8°C° 0 mm 1 mps 677 mmHg 71%
    03:00 +7°C° 0 mm 1 mps 677 mmHg 71%
    04:00 +7°C° 0 mm 1 mps 676 mmHg 70%
    05:00 +7°C° 0 mm 1 mps 676 mmHg 70%
    06:00 +7°C° 0 mm 1 mps 676 mmHg 68%
    07:00 +8°C° 0 mm 1 mps 677 mmHg 66%
    08:00 +8°C° 0 mm 1 mps 677 mmHg 64%
    09:00 +10°C° 0 mm 1 mps 677 mmHg 56%
    10:00 +13°C° 0 mm 1 mps 678 mmHg 48%
    11:00 +15°C° 0 mm 1 mps 678 mmHg 40%
    12:00 +15°C° 0 mm 1 mps 678 mmHg 38%
    13:00 +16°C° 0 mm 1 mps 678 mmHg 37%
    14:00 +16°C° 0 mm 1 mps 677 mmHg 35%
    15:00 +15°C° 0 mm 1 mps 677 mmHg 41%
    16:00 +13°C° 0 mm 1 mps 676 mmHg 47%
    17:00 +11°C° 0 mm 1 mps 676 mmHg 53%
    18:00 +10°C° 0 mm 1 mps 676 mmHg 54%
    19:00 +10°C° 0 mm 1 mps 676 mmHg 55%
    20:00 +9°C° 0 mm 1 mps 676 mmHg 56%
    21:00 +9°C° 0 mm 1 mps 675 mmHg 57%
    22:00 +8°C° 0 mm 1 mps 675 mmHg 58%
    23:00 +8°C° 0 mm 1 mps 675 mmHg 59%

    14 December, Thursday

    Time Temperature Precipitation Wind Pressure Humidity
    00:00 +8°C° 0 mm 1 mps 675 mmHg 60%
    01:00 +8°C° 0 mm 1 mps 675 mmHg 61%
    02:00 +7°C° 0 mm 1 mps 674 mmHg 62%
    03:00 +7°C° 0 mm 1 mps 674 mmHg 60%
    04:00 +7°C° 0 mm 1 mps 674 mmHg 58%
    05:00 +7°C° 0 mm 1 mps 674 mmHg 56%
    06:00 +7°C° 0 mm 1 mps 674 mmHg 54%
    07:00 +8°C° 0 mm 1 mps 674 mmHg 52%
    08:00 +8°C° 0 mm 1 mps 674 mmHg 51%
    09:00 +10°C° 0 mm 1 mps 675 mmHg 45%
    10:00 +12°C° 0 mm 1 mps 675 mmHg 39%
    11:00 +14°C° 0 mm 1 mps 676 mmHg 33%
    12:00 +14°C° 0 mm 1 mps 675 mmHg 34%
    13:00 +15°C° 0 mm 1 mps 675 mmHg 35%
    14:00 +15°C° 0 mm 1 mps 675 mmHg 35%
    15:00 +13°C° 0 mm 1 mps 674 mmHg 44%
    16:00 +11°C° 0 mm 1 mps 674 mmHg 53%
    17:00 +9°C° 0 mm 1 mps 673 mmHg 61%
    18:00 +7°C° 0 mm 0 mps 673 mmHg 64%
    19:00 +7°C° 0 mm 0 mps 673 mmHg 66%
    20:00 +6°C° 0 mm 0 mps 673 mmHg 68%
    21:00 +6°C° 0 mm 0 mps 673 mmHg 69%
    22:00 +7°C° 0 mm 1 mps 673 mmHg 69%
    23:00 +6°C° 0 mm 1 mps 673 mmHg 70%

    15 December, Friday

    Time Temperature Precipitation Wind Pressure Humidity
    00:00 +6°C° 0 mm 1 mps 673 mmHg 69%
    01:00 +6°C° 0 mm 1 mps 673 mmHg 68%
    02:00 +5°C° 0 mm 0 mps 673 mmHg 66%
    03:00 +6°C° 0 mm 1 mps 673 mmHg 66%
    04:00 +5°C° 0 mm 1 mps 673 mmHg 66%
    05:00 +5°C° 0 mm 1 mps 673 mmHg 65%
    06:00 +6°C° 0 mm 1 mps 673 mmHg 63%
    07:00 +6°C° 0 mm 1 mps 674 mmHg 61%
    08:00 +7°C° 0 mm 1 mps 674 mmHg 59%
    09:00 +9°C° 0 mm 1 mps 675 mmHg 53%
    10:00 +11°C° 0 mm 1 mps 675 mmHg 47%
    11:00 +13°C° 0 mm 1 mps 676 mmHg 41%
    12:00 +13°C° 0 mm 1 mps 676 mmHg 41%
    13:00 +14°C° 0 mm 1 mps 676 mmHg 42%
    14:00 +14°C° 0 mm 1 mps 676 mmHg 42%
    15:00 +12°C° 0 mm 1 mps 675 mmHg 51%
    16:00 +10°C° 0 mm 1 mps 675 mmHg 60%
    17:00 +9°C° 0 mm 1 mps 675 mmHg 70%
    18:00 +8°C° 0 mm 1 mps 675 mmHg 73%
    19:00 +8°C° 0 mm 1 mps 675 mmHg 77%
    20:00 +7°C° 0 mm 1 mps 675 mmHg 81%
    21:00 +7°C° 0 mm 1 mps 675 mmHg 82%
    22:00 +7°C° 0 mm 1 mps 675 mmHg 84%
    23:00 +7°C° 0 mm 1 mps 675 mmHg 85%

    16 December, Saturday

    Time Temperature Precipitation Wind Pressure Humidity
    00:00 +7°C° 0 mm 1 mps 675 mmHg 86%
    01:00 +6°C° 0 mm 1 mps 675 mmHg 86%
    02:00 +6°C° 0 mm 1 mps 675 mmHg 87%
    03:00 +6°C° 0 mm 1 mps 675 mmHg 87%
    04:00 +6°C° 0 mm 1 mps 675 mmHg 87%
    05:00 +6°C° 0 mm 1 mps 675 mmHg 87%
    06:00 +6°C° 0 mm 1 mps 676 mmHg 86%
    07:00 +7°C° 0 mm 1 mps 676 mmHg 85%
    08:00 +7°C° 0 mm 1 mps 676 mmHg 84%
    09:00 +9°C° 0 mm 1 mps 677 mmHg 77%
    10:00 +9°C° 0 mm 2 mps 677 mmHg 71%
    11:00 +12°C° 0 mm 2 mps 677 mmHg 64%
    12:00 +12°C° 0 mm 2 mps 677 mmHg 63%
    13:00 +12°C° 0 mm 2 mps 676 mmHg 63%
    14:00 +13°C° 0 mm 2 mps 676 mmHg 62%
    15:00 +12°C° 0 mm 2 mps 676 mmHg 69%
    16:00 +10°C° 0 mm 2 mps 676 mmHg 77%
    17:00 +9°C° 0 mm 1 mps 675 mmHg 85%
    18:00 +9°C° 0 mm 1 mps 676 mmHg 87%
    19:00 +9°C° 0 mm 1 mps 676 mmHg 89%
    20:00 +9°C° 0 mm 1 mps 676 mmHg 91%
    21:00 +9°C° 0 mm 1 mps 676 mmHg 92%
    22:00 +8°C° 0 mm 1 mps 677 mmHg 92%
    23:00 +8°C° 0 mm 1 mps 677 mmHg 93%
    Show more